Location: Borz?cin
(51.1714°N, 19.6030°E)
Time: 08:15:32
(UTC+00:00)

Cosmos 1470 Rocket - Pass Details

Date: 19 May 2025
Orbit: 597 x 628 km, 82.5° (Epoch: 16 June)

Event Time Altitude Azimuth Distance (km) Brightness Sun altitude
Rises 22:44:45 0° 353° (N) 2,868 8.6 -18.8°
Reaches altitude 10° 22:47:03 10° 0° (N) 1,957 7.4 -18.8°
Maximum altitude 22:51:13 45° 74° (ENE) 822 4.3 -18.8°
Enters shadow 22:53:06 27° 130° (SE) 1,150 4.6 -18.8°
